+ View the NASA Portal
+ Center for Near-Earth Object Studies
IMPORTANT:
The SSD Announcement email list is now available. Major changes are coming in the near future, including possible hostname and/or URL changes. To be notified of such changes, subscribe to this email list.
Please visit
this page
for more details.
Don't show this message again
JPL Small-Body Database Browser
Search:
[
help
]
359837 (2011 UX333)
Classification:
Main-belt Asteroid
SPK-ID:
2359837
[
Ephemeris
|
Orbit Diagram
|
Orbital Elements
|
Mission Design
|
Physical Parameters
|
Discovery Circumstances
]
[ show orbit diagram ]
Orbital Elements at Epoch 2458600.5 (2019-Apr-27.0) TDB
Reference:
JPL 6
(heliocentric ecliptic J2000)
Element
Value
Uncertainty (1-sigma)
Units
e
.1258521598163122
9.0979e-08
a
2.289563448764175
2.9075e-08
au
q
2.001416943700719
2.1799e-07
au
i
6.736284600501613
1.5389e-05
deg
node
160.9430248073821
0.00010849
deg
peri
156.1461996991981
0.00013295
deg
M
117.0363347037643
7.5739e-05
deg
t
p
2458189.117641901819
(2018-Mar-11.61764190)
0.00026738
TDB
period
1265.398897617578
3.46
2.4104e-05
6.599e-08
d
yr
n
.2844952691817479
5.4192e-09
deg/d
Q
2.577709953827631
3.2734e-08
au
Orbit Determination Parameters
# obs. used (total)
67
data-arc span
5684 days (15.56 yr)
first obs. used
2003-03-27
last obs. used
2018-10-18
planetary ephem.
DE431
SB-pert. ephem.
SB431-N16
condition code
0
norm. resid. RMS
.59952
source
ORB
producer
Otto Matic
solution date
2018-Oct-31 04:57:47
Additional Information
Earth MOID
= .989607 au
Jupiter MOID
= 2.69524 au
T_jup
= 3.580
[ show covariance matrix ]
[
Ephemeris
|
Orbit Diagram
|
Orbital Elements
|
Mission Design
|
Physical Parameters
|
Discovery Circumstances
]
Physical Parameter Table
Parameter
Symbol
Value
Units
Sigma
Reference
Notes
absolute magnitude
H
17.2
n/a
MPO460416
359837 (2011 UX333)
Discovered 2003-Mar-27 by Spacewatch at Kitt Peak
Reference:
20130327/Numbers.arc
Last Updated:
2013-03-29
[
Ephemeris
|
Orbit Diagram
|
Orbital Elements
|
Mission Design
|
Physical Parameters
|
Discovery Circumstances
]
2019-Dec-10 22:09 UT
(server date/time)
Site Manager:
Ryan S. Park
Webmaster
:
Alan B. Chamberlin